| time (UTC) | temp F | wind direction | speed MPH | gust MPH | rain 1hr in | rain 24hr in | rain mn in | humidity % | barometer mb |
| 20260507193116 | 74 | 303 | 7.0 | 9.0 | 0.00 | 2.26 | 2.26 | 91 | 1012.3 |
| 20260507192612 | 74 | 271 | 4.0 | 9.0 | 0.00 | 2.26 | 2.26 | 92 | 1012.3 |
| 20260507192109 | 75 | 300 | 6.0 | 10.0 | 0.00 | 2.26 | 2.26 | 93 | 1012.4 |
| 20260507191603 | 75 | 326 | 4.0 | 13.0 | 0.00 | 2.26 | 2.26 | 94 | 1012.3 |
| 20260507191101 | 75 | 227 | 2.0 | 10.0 | 0.00 | 2.26 | 2.26 | 95 | 1012.5 |
| 20260507190558 | 75 | 319 | 6.0 | 10.0 | 0.00 | 2.26 | 2.26 | 96 | 1012.3 |
| 20260507190057 | 75 | 317 | 7.0 | 11.0 | 0.00 | 2.26 | 2.26 | 97 | 1012.2 |
| 20260507185555 | 75 | 300 | 0.0 | 7.0 | 0.00 | 2.26 | 2.26 | 98 | 1012.3 |
| 20260507185051 | 74 | 309 | 4.0 | 9.0 | 0.00 | 2.26 | 2.26 | 98 | 1012.6 |
| 20260507184550 | 75 | 306 | 4.0 | 7.0 | 0.00 | 2.26 | 2.26 | 98 | 1012.8 |
| 20260507184047 | 74 | 148 | 3.0 | 6.0 | 0.00 | 2.26 | 2.26 | 99 | 1012.5 |
| 20260507183543 | 73 | 334 | 9.0 | 10.0 | 0.00 | 2.26 | 2.26 | 99 | 1012.5 |
| 20260507183040 | 74 | 309 | 4.0 | 7.0 | 0.00 | 2.26 | 2.26 | 99 | 1012.5 |
| 20260507182537 | 74 | 339 | 4.0 | 6.0 | 0.00 | 2.26 | 2.26 | 99 | 1012.6 |
| 20260507182032 | 74 | 345 | 5.0 | 9.0 | 0.00 | 2.26 | 2.26 | 99 | 1012.8 |
| 20260507181530 | 72 | 303 | 2.0 | 6.0 | 0.00 | 2.26 | 2.26 | 99 | 1012.7 |
| 20260507181026 | 71 | 300 | 2.0 | 13.0 | 0.00 | 2.26 | 2.26 | 99 | 1012.7 |
| 20260507180522 | 72 | 272 | 3.0 | 9.0 | 0.00 | 2.26 | 2.26 | 99 | 1012.5 |
| 20260507180019 | 72 | 306 | 2.0 | 7.0 | 0.00 | 2.26 | 2.26 | 99 | 1012.9 |
| 20260507175515 | 72 | 269 | 2.0 | 2.0 | 0.00 | 2.26 | 2.26 | 99 | 1012.6 |
| 20260507175013 | 72 | 348 | 2.0 | 9.0 | 0.00 | 2.26 | 2.26 | 99 | 1012.8 |
| 20260507174510 | 72 | 331 | 5.0 | 11.0 | 0.00 | 2.26 | 2.26 | 99 | 1012.9 |
| 20260507174008 | 72 | 309 | 7.0 | 8.0 | 0.00 | 2.26 | 2.26 | 99 | 1013.1 |
| 20260507173504 | 71 | 320 | 2.0 | 7.0 | 0.00 | 2.26 | 2.26 | 99 | 1012.7 |
| 20260507173002 | 70 | 235 | 3.0 | 8.0 | 0.00 | 2.26 | 2.26 | 99 | 1012.7 |
| 20260507172458 | 71 | 348 | 4.0 | 7.0 | 0.00 | 2.26 | 2.26 | 99 | 1012.8 |
| 20260507171955 | 70 | 284 | 1.0 | 3.0 | 0.00 | 2.26 | 2.26 | 99 | 1012.6 |
| 20260507171450 | 70 | 35 | 1.0 | 3.0 | 0.00 | 2.26 | 2.26 | 99 | 1012.8 |
| 20260507170948 | 69 | 300 | 1.0 | 3.0 | 0.00 | 2.26 | 2.26 | 99 | 1012.8 |
| 20260507170444 | 69 | 338 | 7.0 | 8.0 | 0.00 | 2.26 | 2.26 | 99 | 1012.9 |
| 20260507165940 | 70 | 307 | 4.0 | 6.0 | 0.00 | 2.26 | 2.26 | 99 | 1012.9 |
| 20260507165437 | 69 | 185 | 4.0 | 4.0 | 0.00 | 2.26 | 2.26 | 99 | 1012.8 |
| 20260507164933 | 68 | 309 | 4.0 | 6.0 | 0.00 | 2.26 | 2.26 | 99 | 1012.8 |
| 20260507164430 | 68 | 311 | 1.0 | 6.0 | 0.00 | 2.26 | 2.26 | 99 | 1012.9 |
| 20260507163926 | 67 | 21 | 1.0 | 7.0 | 0.00 | 2.26 | 2.26 | 99 | 1012.8 |
| 20260507163424 | 67 | 137 | 1.0 | 4.0 | 0.00 | 2.26 | 2.26 | 99 | 1012.9 |
| 20260507162921 | 67 | 270 | 3.0 | 7.0 | 0.00 | 2.26 | 2.26 | 99 | 1013.0 |
| 20260507162416 | 67 | 213 | 1.0 | 2.0 | 0.00 | 2.26 | 2.26 | 99 | 1012.9 |
| 20260507161914 | 67 | 291 | 2.0 | 3.0 | 0.00 | 2.26 | 2.26 | 99 | 1012.9 |
| 20260507161409 | 66 | 312 | 3.0 | 6.0 | 0.00 | 2.26 | 2.26 | 99 | 1012.9 |
| 20260507160907 | 66 | 304 | 2.0 | 3.0 | 0.00 | 2.26 | 2.26 | 99 | 1013.0 |
| 20260507160402 | 66 | 322 | 2.0 | 3.0 | 0.00 | 2.26 | 2.26 | 99 | 1013.0 |
| 20260507155859 | 66 | 338 | 2.0 | 3.0 | 0.00 | 2.26 | 2.26 | 99 | 1012.9 |
| 20260507155354 | 66 | 326 | 1.0 | 3.0 | 0.00 | 2.26 | 2.26 | 99 | 1013.1 |
| 20260507154851 | 66 | 68 | 0.0 | 2.0 | 0.00 | 2.26 | 2.26 | 99 | 1013.1 |
| 20260507154349 | 66 | 328 | 2.0 | 3.0 | 0.00 | 2.26 | 2.26 | 99 | 1013.3 |
| 20260507153932 | 65 | 254 | 0.0 | 2.0 | 0.00 | 2.26 | 2.26 | 99 | 1013.6 |
| 20260507153846 | 65 | 254 | 0.0 | 2.0 | 0.00 | 2.26 | 2.26 | 99 | 1013.6 |
| 20260507153548 | 65 | 7 | 1.0 | 1.0 | 0.00 | 2.26 | 2.26 | 99 | 1013.6 |
| 20260507153342 | 65 | 7 | 1.0 | 1.0 | 0.00 | 2.26 | 2.26 | 99 | 1013.6 |
| 20260507153140 | 65 | 311 | 1.0 | 2.0 | 0.00 | 2.26 | 2.26 | 99 | 1013.7 |
| 20260507152838 | 65 | 311 | 1.0 | 2.0 | 0.00 | 2.26 | 2.26 | 99 | 1013.7 |
| 20260507152335 | 66 | 335 | 2.0 | 3.0 | 0.00 | 2.26 | 2.26 | 99 | 1013.5 |
| 20260507152256 | 66 | 122 | 0.0 | 3.0 | 0.00 | 2.26 | 2.26 | 99 | 1013.5 |
| 20260507151831 | 66 | 122 | 0.0 | 3.0 | 0.00 | 2.26 | 2.26 | 99 | 1013.5 |
| 20260507151327 | 65 | 335 | 2.0 | 3.0 | 0.00 | 2.26 | 2.26 | 99 | 1013.5 |
| 20260507150824 | 65 | 334 | 0.0 | 1.0 | 0.00 | 2.26 | 2.26 | 99 | 1013.3 |
| 20260507150321 | 65 | 336 | 1.0 | 3.0 | 0.00 | 2.26 | 2.26 | 99 | 1013.3 |
| 20260507145817 | 65 | 319 | 2.0 | 4.0 | 0.00 | 2.26 | 2.26 | 99 | 1013.3 |
| 20260507145313 | 65 | 335 | 0.0 | 3.0 | 0.00 | 2.26 | 2.26 | 99 | 1013.4 |
| 20260507144811 | 65 | 341 | 0.0 | 1.0 | 0.05 | 2.26 | 2.26 | 99 | 1013.4 |
| 20260507144308 | 64 | 343 | 0.0 | 0.0 | 0.17 | 2.26 | 2.26 | 99 | 1013.5 |
| 20260507143804 | 64 | 41 | 0.0 | 0.0 | 0.19 | 2.25 | 2.25 | 99 | 1013.6 |
| 20260507143302 | 64 | 299 | 1.0 | 2.0 | 0.12 | 2.23 | 2.23 | 99 | 1013.8 |
| 20260507142757 | 64 | 352 | 0.0 | 1.0 | 0.12 | 2.22 | 2.22 | 99 | 1014.1 |
| 20260507142248 | 64 | 322 | 1.0 | 1.0 | 0.07 | 2.20 | 2.20 | 99 | 1013.8 |
| 20260507141744 | 64 | 329 | 1.0 | 1.0 | 0.07 | 2.20 | 2.20 | 99 | 1013.6 |
| 20260507141242 | 64 | 330 | 0.0 | 0.0 | 0.00 | 2.19 | 2.19 | 99 | 1013.4 |
| 20260507140737 | 64 | 320 | 0.0 | 2.0 | 0.05 | 2.19 | 2.19 | 99 | 1013.2 |
| 20260507140236 | 64 | 3 | 0.0 | 0.0 | 0.05 | 2.19 | 2.19 | 99 | 1012.7 |
| 20260507135732 | 64 | 2 | 0.0 | 2.0 | 0.00 | 2.18 | 2.18 | 99 | 1012.9 |
| 20260507135230 | 64 | 86 | 0.0 | 1.0 | 0.00 | 2.18 | 2.18 | 99 | 1012.6 |
| 20260507134726 | 64 | 25 | 0.0 | 0.0 | 0.00 | 2.18 | 2.18 | 99 | 1013.3 |
| 20260507134222 | 64 | 28 | 0.0 | 0.0 | 0.00 | 2.18 | 2.18 | 99 | 1013.3 |
| 20260507133718 | 64 | 28 | 0.0 | 0.0 | 0.12 | 2.18 | 2.18 | 99 | 1013.1 |
| 20260507133215 | 64 | 27 | 0.0 | 0.0 | 0.19 | 2.18 | 2.18 | 99 | 1012.9 |
| 20260507132712 | 64 | 312 | 0.0 | 2.0 | 0.07 | 2.16 | 2.16 | 99 | 1013.2 |
| 20260507132209 | 64 | 149 | 0.0 | 0.0 | 0.05 | 2.15 | 2.15 | 99 | 1012.5 |
| 20260507131706 | 64 | 191 | 0.0 | 0.0 | 0.17 | 2.15 | 2.15 | 99 | 1013.2 |
| 20260507131204 | 64 | 191 | 0.0 | 0.0 | 0.19 | 2.14 | 2.14 | 99 | 1013.1 |
| 20260507130700 | 64 | 191 | 0.0 | 0.0 | 0.12 | 2.12 | 2.12 | 99 | 1013.4 |
| 20260507130158 | 63 | 191 | 0.0 | 0.0 | 0.24 | 2.11 | 2.11 | 99 | 1013.7 |
| 20260507125657 | 63 | 254 | 0.0 | 0.0 | 0.50 | 2.10 | 2.10 | 99 | 1014.0 |
| 20260507125154 | 63 | 255 | 0.0 | 0.0 | 0.42 | 2.07 | 2.07 | 99 | 1014.0 |
| 20260507124649 | 63 | 255 | 0.0 | 0.0 | 0.35 | 2.02 | 2.02 | 99 | 1013.9 |
| 20260507124148 | 63 | 227 | 0.0 | 0.0 | 0.47 | 2.00 | 2.00 | 99 | 1014.2 |
| 20260507123646 | 63 | 253 | 0.0 | 2.0 | 0.47 | 1.95 | 1.95 | 99 | 1013.4 |
| 20260507123143 | 64 | 281 | 1.0 | 2.0 | 0.35 | 1.92 | 1.92 | 99 | 1013.5 |
| 20260507122638 | 63 | 309 | 0.0 | 1.0 | 0.12 | 1.87 | 1.87 | 99 | 1013.0 |
| 20260507122134 | 64 | 189 | 0.0 | 0.0 | 0.12 | 1.86 | 1.86 | 99 | 1012.8 |
| 20260507121630 | 64 | 274 | 0.0 | 0.0 | 0.05 | 1.85 | 1.85 | 99 | 1012.8 |
| 20260507121126 | 64 | 278 | 0.0 | 2.0 | 0.00 | 1.84 | 1.84 | 99 | 1013.1 |
| 20260507120622 | 63 | 177 | 0.0 | 0.0 | 0.00 | 1.84 | 1.84 | 99 | 1012.4 |
| 20260507120119 | 63 | 176 | 0.0 | 0.0 | 0.00 | 1.84 | 1.84 | 99 | 1012.1 |
| 20260507115615 | 63 | 138 | 0.0 | 0.0 | 0.00 | 1.84 | 1.84 | 99 | 1012.1 |
| 20260507115111 | 63 | 133 | 0.0 | 4.0 | 0.00 | 1.84 | 1.84 | 99 | 1012.1 |
| 20260507114607 | 63 | 141 | 1.0 | 2.0 | 0.07 | 1.84 | 1.84 | 99 | 1012.4 |
| 20260507114105 | 63 | 161 | 0.0 | 0.0 | 0.19 | 1.84 | 1.84 | 99 | 1013.1 |
| 20260507113602 | 63 | 161 | 0.0 | 0.0 | 0.59 | 1.83 | 1.83 | 99 | 1013.0 |
| 20260507113059 | 63 | 162 | 0.0 | 0.0 | 1.13 | 1.81 | 1.81 | 99 | 1013.0 |
| 20260507112557 | 63 | 263 | 0.0 | 4.0 | 1.58 | 1.71 | 1.71 | 99 | 1013.4 |
| 20260507112053 | 63 | 294 | 2.0 | 6.0 | 1.87 | 1.60 | 1.60 | 99 | 1014.1 |
| 20260507111550 | 63 | 285 | 2.0 | 7.0 | 1.79 | 1.45 | 1.45 | 99 | 1013.6 |
| 20260507111047 | 63 | 321 | 2.0 | 3.0 | 1.49 | 1.28 | 1.28 | 99 | 1013.1 |
| 20260507110543 | 63 | 330 | 0.0 | 1.0 | 0.73 | 1.12 | 1.12 | 99 | 1012.6 |
| 20260507110040 | 63 | 1 | 0.0 | 0.0 | 0.66 | 1.03 | 1.03 | 99 | 1012.3 |
| 20260507105537 | 63 | 5 | 0.0 | 0.0 | 0.47 | 1.00 | 1.00 | 99 | 1012.2 |
| 20260507105033 | 63 | 9 | 0.0 | 0.0 | 0.07 | 0.92 | 0.92 | 99 | 1012.5 |
| 20260507104531 | 63 | 9 | 0.0 | 0.0 | 0.05 | 0.91 | 0.91 | 99 | 1012.3 |
| 20260507104027 | 63 | 10 | 0.0 | 0.0 | 0.17 | 0.91 | 0.91 | 99 | 1012.3 |
| 20260507103523 | 63 | 324 | 0.0 | 0.0 | 0.12 | 0.90 | 0.90 | 99 | 1012.2 |
| 20260507103019 | 63 | 324 | 0.0 | 0.0 | 0.07 | 0.88 | 0.88 | 99 | 1012.4 |
| 20260507102516 | 63 | 324 | 0.0 | 0.0 | 0.12 | 0.88 | 0.88 | 99 | 1012.4 |
| 20260507102012 | 63 | 322 | 0.0 | 0.0 | 0.12 | 0.87 | 0.87 | 99 | 1012.4 |
| 20260507101508 | 63 | 320 | 0.0 | 0.0 | 0.07 | 0.86 | 0.86 | 99 | 1012.9 |
| 20260507101005 | 63 | 318 | 0.0 | 0.0 | 0.00 | 0.85 | 0.85 | 99 | 1012.9 |
| 20260507100502 | 63 | 317 | 0.0 | 0.0 | 0.00 | 0.85 | 0.85 | 99 | 1012.8 |
| 20260507100000 | 63 | 315 | 0.0 | 0.0 | 0.00 | 0.85 | 0.85 | 99 | 1012.7 |
| 20260507095457 | 63 | 302 | 0.0 | 0.0 | 0.00 | 0.85 | 0.85 | 99 | 1012.8 |
| 20260507094948 | 63 | 291 | 0.0 | 0.0 | 0.00 | 0.85 | 0.85 | 99 | 1012.9 |
| 20260507094444 | 63 | 291 | 0.0 | 0.0 | 0.00 | 0.85 | 0.85 | 99 | 1012.8 |
| 20260507093942 | 63 | 289 | 0.0 | 0.0 | 0.00 | 0.85 | 0.85 | 99 | 1012.7 |
| 20260507093439 | 63 | 279 | 0.0 | 0.0 | 0.00 | 0.85 | 0.85 | 99 | 1012.8 |
| 20260507092937 | 63 | 267 | 0.0 | 0.0 | 0.00 | 0.85 | 0.85 | 99 | 1012.9 |
| 20260507092433 | 63 | 253 | 0.0 | 0.0 | 0.00 | 0.85 | 0.85 | 99 | 1013.2 |
| 20260507091930 | 63 | 253 | 0.0 | 0.0 | 0.00 | 0.85 | 0.85 | 99 | 1013.2 |
| 20260507091427 | 63 | 252 | 0.0 | 0.0 | 0.00 | 0.85 | 0.85 | 99 | 1013.2 |
| 20260507090922 | 63 | 253 | 0.0 | 0.0 | 0.00 | 0.85 | 0.85 | 99 | 1013.2 |
| 20260507090419 | 63 | 252 | 0.0 | 0.0 | 0.00 | 0.85 | 0.85 | 99 | 1013.0 |
| 20260507085915 | 63 | 252 | 0.0 | 0.0 | 0.05 | 0.85 | 0.85 | 99 | 1013.3 |
| 20260507085413 | 63 | 252 | 0.0 | 0.0 | 0.05 | 0.85 | 0.85 | 99 | 1013.2 |
| 20260507084910 | 63 | 252 | 0.0 | 0.0 | 0.00 | 0.84 | 0.84 | 99 | 1013.3 |
| 20260507084406 | 63 | 252 | 0.0 | 0.0 | 0.00 | 0.84 | 0.84 | 99 | 1013.4 |
| 20260507083904 | 63 | 253 | 0.0 | 0.0 | 0.00 | 0.84 | 0.84 | 99 | 1013.6 |
| 20260507083400 | 63 | 253 | 0.0 | 0.0 | 0.00 | 0.84 | 0.84 | 99 | 1013.4 |
| 20260507082856 | 63 | 251 | 0.0 | 0.0 | 0.00 | 0.84 | 0.84 | 99 | 1013.1 |
| 20260507082352 | 63 | 251 | 0.0 | 0.0 | 0.07 | 0.84 | 0.84 | 99 | 1013.3 |
| 20260507081849 | 63 | 251 | 0.0 | 0.0 | 0.07 | 0.84 | 0.84 | 99 | 1013.6 |
| 20260507081345 | 63 | 251 | 0.0 | 0.0 | 0.00 | 0.83 | 0.83 | 99 | 1013.9 |
| 20260507080842 | 63 | 251 | 0.0 | 0.0 | 0.00 | 0.83 | 0.83 | 99 | 1013.7 |
| 20260507080338 | 63 | 251 | 0.0 | 0.0 | 0.00 | 0.83 | 0.83 | 99 | 1013.8 |
| 20260507075834 | 63 | 253 | 0.0 | 0.0 | 0.00 | 0.83 | 0.83 | 99 | 1013.4 |
| 20260507075330 | 63 | 254 | 0.0 | 0.0 | 0.00 | 0.83 | 0.83 | 99 | 1013.7 |
| 20260507074827 | 63 | 254 | 0.0 | 0.0 | 0.00 | 0.83 | 0.83 | 99 | 1013.7 |
| 20260507074324 | 63 | 254 | 0.0 | 0.0 | 0.07 | 0.83 | 0.83 | 99 | 1014.0 |
| 20260507073821 | 63 | 254 | 0.0 | 0.0 | 0.07 | 0.83 | 0.83 | 99 | 1013.8 |
| 20260507073318 | 63 | 254 | 0.0 | 0.0 | 0.12 | 0.82 | 0.82 | 99 | 1013.5 |
| 20260507072815 | 63 | 257 | 0.0 | 0.0 | 0.24 | 0.82 | 0.82 | 99 | 1013.7 |
| 20260507072313 | 63 | 276 | 0.0 | 0.0 | 0.28 | 0.80 | 0.80 | 99 | 1013.9 |
| 20260507071810 | 63 | 282 | 1.0 | 1.0 | 0.28 | 0.78 | 0.78 | 99 | 1014.2 |
| 20260507071306 | 63 | 234 | 0.0 | 0.0 | 0.19 | 0.75 | 0.75 | 99 | 1014.0 |
| 20260507070803 | 63 | 286 | 0.0 | 0.0 | 0.12 | 0.73 | 0.73 | 99 | 1013.9 |
| 20260507070300 | 63 | 269 | 0.0 | 1.0 | 0.05 | 0.72 | 0.72 | 99 | 1014.1 |
| 20260507065757 | 63 | 294 | 0.0 | 0.0 | 0.07 | 0.71 | 0.71 | 99 | 1014.0 |
| 20260507065253 | 63 | 293 | 0.0 | 0.0 | 0.07 | 0.71 | 0.71 | 99 | 1014.3 |
| 20260507064751 | 63 | 293 | 0.0 | 0.0 | 0.07 | 0.70 | 0.70 | 99 | 1014.6 |
| 20260507064249 | 63 | 294 | 0.0 | 1.0 | 0.07 | 0.70 | 0.70 | 99 | 1014.6 |
| 20260507063747 | 63 | 68 | 0.0 | 0.0 | 0.12 | 0.69 | 0.69 | 99 | 1014.1 |
| 20260507063243 | 63 | 40 | 0.0 | 0.0 | 0.19 | 0.68 | 0.68 | 99 | 1014.2 |
| 20260507062740 | 64 | 274 | 0.0 | 0.0 | 0.17 | 0.67 | 0.67 | 99 | 1014.5 |
| 20260507062237 | 63 | 273 | 0.0 | 0.0 | 0.17 | 0.65 | 0.65 | 99 | 1014.9 |
| 20260507061736 | 63 | 82 | 0.0 | 0.0 | 0.24 | 0.63 | 0.63 | 99 | 1014.7 |
| 20260507061233 | 64 | 82 | 0.0 | 0.0 | 0.31 | 0.62 | 0.62 | 99 | 1014.6 |
| 20260507060731 | 64 | 82 | 0.0 | 1.0 | 0.24 | 0.59 | 0.59 | 99 | 1014.6 |
| 20260507060227 | 64 | 282 | 0.0 | 0.0 | 0.31 | 0.57 | 0.57 | 99 | 1015.5 |
| 20260507055724 | 64 | 259 | 1.0 | 2.0 | 0.35 | 0.55 | 0.55 | 99 | 1015.6 |
| 20260507055219 | 64 | 261 | 0.0 | 0.0 | 0.24 | 0.51 | 0.51 | 99 | 1015.5 |
| 20260507054715 | 64 | 288 | 0.0 | 0.0 | 0.26 | 0.49 | 0.49 | 99 | 1015.3 |
| 20260507054213 | 64 | 303 | 1.0 | 2.0 | 0.31 | 0.47 | 0.47 | 99 | 1015.4 |
| 20260507053710 | 64 | 144 | 1.0 | 1.0 | 0.52 | 0.45 | 0.45 | 99 | 1015.0 |
| 20260507053208 | 64 | 283 | 0.0 | 2.0 | 0.54 | 0.42 | 0.42 | 99 | 1015.7 |
| 20260507052707 | 64 | 291 | 1.0 | 3.0 | 0.50 | 0.36 | 0.36 | 99 | 1016.1 |
| 20260507052202 | 64 | 286 | 0.0 | 1.0 | 0.47 | 0.32 | 0.32 | 99 | 1016.0 |
| 20260507051700 | 64 | 263 | 1.0 | 1.0 | 0.47 | 0.28 | 0.28 | 99 | 1016.0 |
| 20260507051156 | 64 | 260 | 0.0 | 2.0 | 0.42 | 0.24 | 0.24 | 99 | 1016.0 |
| 20260507050653 | 64 | 273 | 1.0 | 2.0 | 0.47 | 0.20 | 0.20 | 99 | 1016.0 |
| 20260507050150 | 64 | 266 | 0.0 | 2.0 | 0.28 | 0.17 | 0.17 | 99 | 1016.1 |
| 20260507045647 | 64 | 287 | 0.0 | 0.0 | 0.07 | 0.12 | 0.12 | 99 | 1016.0 |
| 20260507045144 | 64 | 329 | 1.0 | 1.0 | 0.07 | 0.12 | 0.12 | 99 | 1015.4 |
| 20260507044641 | 64 | 346 | 0.0 | 0.0 | 0.00 | 0.11 | 0.11 | 99 | 1015.4 |
| 20260507044137 | 64 | 280 | 0.0 | 0.0 | 0.00 | 0.11 | 0.11 | 99 | 1015.6 |
| 20260507043633 | 64 | 328 | 1.0 | 2.0 | 0.00 | 0.11 | 0.11 | 99 | 1014.9 |
| 20260507043131 | 64 | 46 | 0.0 | 0.0 | 0.05 | 0.11 | 0.11 | 99 | 1015.0 |
| 20260507042626 | 64 | 44 | 0.0 | 1.0 | 0.12 | 0.11 | 0.11 | 99 | 1015.2 |
| 20260507042121 | 64 | 337 | 0.0 | 0.0 | 0.26 | 0.10 | 0.10 | 99 | 1015.1 |
| 20260507041618 | 64 | 336 | 0.0 | 0.0 | 0.35 | 0.08 | 0.08 | 98 | 1015.0 |
| 20260507041116 | 64 | 86 | 0.0 | 0.0 | 0.31 | 0.05 | 0.05 | 98 | 1015.5 |
| 20260507040613 | 64 | 4 | 2.0 | 3.0 | 0.12 | 0.01 | 0.01 | 98 | 1015.6 |
| 20260507040109 | 64 | 274 | 0.0 | 0.0 | 0.12 | 0.00 | 0.00 | 98 | 1015.2 |
| 20260507035604 | 64 | 85 | 0.0 | 2.0 | 0.12 | 1.42 | 1.42 | 98 | 1015.4 |
| 20260507035100 | 64 | 310 | 1.0 | 2.0 | 0.66 | 1.41 | 1.41 | 98 | 1015.4 |
| 20260507034557 | 64 | 43 | 0.0 | 0.0 | 0.92 | 1.40 | 1.40 | 98 | 1015.2 |
| 20260507034055 | 64 | 94 | 1.0 | 2.0 | 0.54 | 1.30 | 1.30 | 98 | 1015.5 |
| 20260507033553 | 64 | 99 | 0.0 | 0.0 | 0.31 | 1.24 | 1.24 | 98 | 1015.7 |
| 20260507033050 | 64 | 324 | 0.0 | 0.0 | 0.17 | 1.21 | 1.21 | 98 | 1015.6 |
| 20260507032547 | 64 | 322 | 0.0 | 0.0 | 0.05 | 1.19 | 1.19 | 97 | 1015.9 |
| 20260507032044 | 64 | 62 | 0.0 | 2.0 | 0.00 | 1.18 | 1.18 | 97 | 1015.7 |
| 20260507031540 | 64 | 154 | 0.0 | 1.0 | 0.07 | 1.18 | 1.18 | 97 | 1015.4 |
| 20260507031037 | 64 | 8 | 0.0 | 0.0 | 0.19 | 1.18 | 1.18 | 97 | 1015.4 |
| 20260507030534 | 65 | 100 | 0.0 | 0.0 | 0.19 | 1.16 | 1.16 | 97 | 1015.4 |
| 20260507030032 | 65 | 98 | 0.0 | 1.0 | 0.12 | 1.15 | 1.15 | 97 | 1015.3 |
| 20260507025528 | 65 | 145 | 0.0 | 0.0 | 0.00 | 1.13 | 1.13 | 97 | 1015.2 |
| 20260507025026 | 65 | 90 | 0.0 | 0.0 | 0.00 | 1.13 | 1.13 | 97 | 1015.4 |
| 20260507024523 | 65 | 90 | 0.0 | 1.0 | 0.00 | 1.13 | 1.13 | 96 | 1015.5 |
| 20260507024020 | 65 | 255 | 0.0 | 1.0 | 0.00 | 1.13 | 1.13 | 96 | 1016.0 |
| 20260507023516 | 65 | 300 | 0.0 | 1.0 | 0.07 | 1.13 | 1.13 | 96 | 1015.9 |
| 20260507023014 | 65 | 125 | 0.0 | 1.0 | 0.19 | 1.13 | 1.13 | 96 | 1015.4 |
| 20260507022510 | 65 | 64 | 0.0 | 0.0 | 0.28 | 1.12 | 1.12 | 96 | 1015.4 |
| 20260507022000 | 65 | 300 | 1.0 | 1.0 | 0.47 | 1.10 | 1.10 | 95 | 1015.4 |
| 20260507021456 | 65 | 84 | 0.0 | 1.0 | 0.66 | 1.07 | 1.07 | 95 | 1015.5 |
| 20260507020953 | 65 | 86 | 1.0 | 1.0 | 0.90 | 1.02 | 1.02 | 95 | 1015.6 |
| 20260507020450 | 65 | 81 | 0.0 | 0.0 | 0.61 | 0.94 | 0.94 | 95 | 1016.4 |
| 20260507015947 | 65 | 105 | 0.0 | 1.0 | 0.24 | 0.86 | 0.86 | 95 | 1016.2 |
| 20260507015446 | 65 | 100 | 0.0 | 0.0 | 0.17 | 0.84 | 0.84 | 94 | 1016.5 |
| 20260507014943 | 65 | 96 | 0.0 | 1.0 | 0.12 | 0.82 | 0.82 | 94 | 1016.1 |
| 20260507014439 | 65 | 313 | 0.0 | 2.0 | 0.12 | 0.81 | 0.81 | 94 | 1016.4 |
| 20260507013935 | 65 | 70 | 1.0 | 1.0 | 0.12 | 0.80 | 0.80 | 94 | 1015.6 |
| 20260507013432 | 65 | 70 | 0.0 | 0.0 | 0.26 | 0.79 | 0.79 | 93 | 1016.2 |
| 20260507012930 | 65 | 70 | 0.0 | 0.0 | 0.31 | 0.78 | 0.78 | 93 | 1016.2 |
| 20260507012426 | 65 | 77 | 0.0 | 1.0 | 0.12 | 0.75 | 0.75 | 93 | 1016.0 |
| 20260507011922 | 65 | 96 | 0.0 | 0.0 | 0.05 | 0.73 | 0.73 | 92 | 1016.2 |
| 20260507011420 | 65 | 96 | 0.0 | 0.0 | 0.12 | 0.73 | 0.73 | 92 | 1016.0 |
| 20260507010914 | 65 | 96 | 0.0 | 0.0 | 0.07 | 0.72 | 0.72 | 92 | 1016.1 |
| 20260507010409 | 66 | 97 | 0.0 | 1.0 | 0.05 | 0.71 | 0.71 | 91 | 1016.0 |
| 20260507005907 | 66 | 76 | 0.0 | 0.0 | 0.12 | 0.71 | 0.71 | 91 | 1016.1 |
| 20260507005404 | 66 | 248 | 1.0 | 1.0 | 0.07 | 0.70 | 0.70 | 90 | 1016.2 |
| 20260507004900 | 66 | 108 | 0.0 | 0.0 | 0.17 | 0.69 | 0.69 | 90 | 1016.2 |
| 20260507004357 | 66 | 277 | 0.0 | 1.0 | 0.90 | 0.69 | 0.69 | 89 | 1016.4 |
| 20260507003854 | 67 | 287 | 3.0 | 6.0 | 1.49 | 0.65 | 0.65 | 88 | 1016.5 |
| 20260507003350 | 68 | 325 | 6.0 | 7.0 | 1.79 | 0.52 | 0.52 | 87 | 1016.5 |
| 20260507002845 | 69 | 323 | 1.0 | 3.0 | 1.68 | 0.38 | 0.38 | 86 | 1016.2 |
| 20260507002341 | 70 | 307 | 4.0 | 4.0 | 1.02 | 0.21 | 0.21 | 84 | 1016.1 |
| 20260507001839 | 72 | 206 | 1.0 | 2.0 | 0.54 | 0.09 | 0.09 | 82 | 1014.8 |
| 20260507001335 | 74 | 38 | 0.0 | 1.0 | 0.12 | 0.02 | 0.02 | 79 | 1013.7 |
| 20260507000832 | 74 | 227 | 0.0 | 0.0 | 0.00 | 0.00 | 0.00 | 78 | 1013.6 |
| 20260507000328 | 75 | 22 | 1.0 | 2.0 | 0.00 | 0.00 | 0.00 | 77 | 1013.2 |
| 20260506235824 | 76 | 55 | 2.0 | 2.0 | 0.00 | 0.00 | 0.00 | 76 | 1013.2 |
| 20260506235320 | 76 | 224 | 0.0 | 0.0 | 0.00 | 0.00 | 0.00 | 75 | 1013.3 |
| 20260506234817 | 76 | 225 | 0.0 | 1.0 | 0.00 | 0.00 | 0.00 | 75 | 1013.3 |
| 20260506234315 | 76 | 24 | 0.0 | 2.0 | 0.00 | 0.00 | 0.00 | 75 | 1013.5 |
| 20260506233812 | 76 | 139 | 0.0 | 0.0 | 0.00 | 0.00 | 0.00 | 74 | 1013.8 |
| 20260506233308 | 76 | 139 | 0.0 | 1.0 | 0.00 | 0.00 | 0.00 | 73 | 1013.8 |
| 20260506232805 | 77 | 139 | 0.0 | 1.0 | 0.00 | 0.00 | 0.00 | 72 | 1013.9 |
| 20260506232300 | 78 | 136 | 0.0 | 1.0 | 0.00 | 0.00 | 0.00 | 71 | 1013.9 |
| 20260506231757 | 78 | 181 | 0.0 | 1.0 | 0.00 | 0.00 | 0.00 | 69 | 1014.2 |
| 20260506231255 | 79 | 332 | 0.0 | 1.0 | 0.00 | 0.00 | 0.00 | 68 | 1014.1 |
| 20260506230752 | 79 | 8 | 0.0 | 2.0 | 0.00 | 0.00 | 0.00 | 67 | 1014.3 |
| 20260506230250 | 79 | 327 | 1.0 | 1.0 | 0.00 | 0.00 | 0.00 | 67 | 1014.3 |
| 20260506225746 | 80 | 308 | 0.0 | 2.0 | 0.00 | 0.00 | 0.00 | 66 | 1014.1 |
| 20260506225242 | 80 | 346 | 0.0 | 1.0 | 0.00 | 0.00 | 0.00 | 66 | 1014.5 |
| 20260506224733 | 80 | 316 | 1.0 | 2.0 | 0.00 | 0.00 | 0.00 | 67 | 1014.5 |
| 20260506224231 | 79 | 59 | 1.0 | 1.0 | 0.00 | 0.00 | 0.00 | 67 | 1013.7 |
| 20260506223727 | 80 | 134 | 0.0 | 1.0 | 0.00 | 0.00 | 0.00 | 66 | 1014.0 |
| 20260506223222 | 80 | 85 | 3.0 | 3.0 | 0.00 | 0.00 | 0.00 | 65 | 1013.9 |
| 20260506222720 | 80 | 12 | 0.0 | 2.0 | 0.00 | 0.00 | 0.00 | 65 | 1013.9 |
| 20260506222215 | 80 | 6 | 0.0 | 0.0 | 0.00 | 0.00 | 0.00 | 65 | 1013.9 |
| 20260506221713 | 80 | 58 | 2.0 | 2.0 | 0.00 | 0.00 | 0.00 | 64 | 1013.7 |
| 20260506221211 | 80 | 323 | 1.0 | 3.0 | 0.00 | 0.00 | 0.00 | 64 | 1013.7 |
| 20260506220708 | 80 | 359 | 0.0 | 3.0 | 0.00 | 0.00 | 0.00 | 65 | 1013.6 |
| 20260506220208 | 80 | 216 | 1.0 | 2.0 | 0.00 | 0.00 | 0.00 | 65 | 1013.6 |
| 20260506215705 | 80 | 60 | 2.0 | 6.0 | 0.00 | 0.00 | 0.00 | 65 | 1013.6 |
| 20260506215200 | 80 | 127 | 0.0 | 2.0 | 0.00 | 0.00 | 0.00 | 66 | 1013.4 |
| 20260506214657 | 80 | 127 | 3.0 | 4.0 | 0.00 | 0.00 | 0.00 | 65 | 1013.8 |
| 20260506214155 | 81 | 65 | 1.0 | 1.0 | 0.00 | 0.00 | 0.00 | 64 | 1014.0 |
| 20260506213653 | 81 | 19 | 3.0 | 4.0 | 0.00 | 0.00 | 0.00 | 63 | 1014.0 |
| 20260506213150 | 81 | 21 | 2.0 | 3.0 | 0.00 | 0.00 | 0.00 | 65 | 1013.9 |
| 20260506212647 | 81 | 325 | 3.0 | 4.0 | 0.00 | 0.00 | 0.00 | 64 | 1014.2 |
| 20260506212142 | 82 | 70 | 0.0 | 3.0 | 0.00 | 0.00 | 0.00 | 66 | 1014.3 |
| 20260506211638 | 82 | 356 | 0.0 | 2.0 | 0.00 | 0.00 | 0.00 | 68 | 1014.1 |
| 20260506211135 | 82 | 172 | 0.0 | 1.0 | 0.00 | 0.00 | 0.00 | 66 | 1014.4 |
| 20260506210632 | 82 | 57 | 0.0 | 1.0 | 0.00 | 0.00 | 0.00 | 65 | 1014.5 |
| 20260506210128 | 84 | 270 | 0.0 | 1.0 | 0.00 | 0.00 | 0.00 | 64 | 1014.5 |
| 20260506205625 | 82 | 99 | 0.0 | 0.0 | 0.00 | 0.00 | 0.00 | 65 | 1014.5 |
| 20260506205120 | 83 | 51 | 0.0 | 0.0 | 0.00 | 0.00 | 0.00 | 65 | 1014.8 |
| 20260506204618 | 82 | 290 | 0.0 | 1.0 | 0.00 | 0.00 | 0.00 | 65 | 1014.7 |
| 20260506204115 | 82 | 194 | 0.0 | 1.0 | 0.00 | 0.00 | 0.00 | 66 | 1015.0 |
| 20260506203613 | 81 | 10 | 0.0 | 1.0 | 0.00 | 0.00 | 0.00 | 67 | 1014.7 |
| 20260506203109 | 81 | 253 | 1.0 | 1.0 | 0.00 | 0.00 | 0.00 | 70 | 1014.8 |
| 20260506202607 | 80 | 271 | 0.0 | 1.0 | 0.00 | 0.00 | 0.00 | 70 | 1014.9 |
| 20260506202103 | 80 | 285 | 1.0 | 1.0 | 0.00 | 0.00 | 0.00 | 70 | 1015.1 |
| 20260506201601 | 79 | 218 | 0.0 | 1.0 | 0.00 | 0.00 | 0.00 | 72 | 1014.8 |
| 20260506201057 | 78 | 126 | 0.0 | 1.0 | 0.00 | 0.00 | 0.00 | 73 | 1015.1 |
| 20260506200554 | 78 | 135 | 1.0 | 1.0 | 0.00 | 0.00 | 0.00 | 73 | 1015.2 |
| 20260506200051 | 78 | 162 | 1.0 | 1.0 | 0.00 | 0.00 | 0.00 | 71 | 1015.4 |
| 20260506195547 | 78 | 252 | 1.0 | 2.0 | 0.00 | 0.00 | 0.00 | 70 | 1015.6 |
| 20260506195043 | 78 | 239 | 2.0 | 2.0 | 0.00 | 0.00 | 0.00 | 70 | 1015.7 |
| 20260506194541 | 78 | 256 | 1.0 | 3.0 | 0.00 | 0.00 | 0.00 | 69 | 1015.7 |
| 20260506194037 | 78 | 268 | 1.0 | 2.0 | 0.00 | 0.00 | 0.00 | 70 | 1015.7 |
| 20260506193535 | 78 | 263 | 2.0 | 3.0 | 0.00 | 0.00 | 0.00 | 69 | 1015.9 |